This is the latest recevied weather packets stored in our database for station/object DB0MOD. If no packets are shown the sender has not sent any weather packets the latest 10 day(s).
| Time | Temp. | Humidity | Pressure | Rain* | Wind** | Luminosity | Snow |
|---|---|---|---|---|---|---|---|
| 1777968544 | 16.11° C | 10% | 1008.8 hPa | 0 mm | - | - | - |
| 1777968244 | 17.22° C | 10% | 1009 hPa | 0 mm | - | - | - |
| 1777967944 | 17.78° C | 10% | 1008.9 hPa | 0 mm | - | - | - |
| 1777967644 | 17.22° C | 10% | 1008.8 hPa | 0 mm | - | - | - |
| 1777967044 | 16.11° C | 10% | 1008.8 hPa | 0 mm | - | - | - |
| 1777966744 | 15.56° C | 10% | 1008.9 hPa | 0 mm | - | - | - |
| 1777966444 | 14.44° C | 10% | 1008.9 hPa | 0 mm | - | - | - |
| 1777966144 | 13.89° C | 10% | 1008.8 hPa | 0 mm | - | - | - |
| 1777965544 | 12.78° C | 10% | 1009 hPa | 0 mm | - | - | - |
| 1777965244 | 11.67° C | 10% | 1009 hPa | 0 mm | - | - | - |
| 1777964944 | 11.11° C | 10% | 1009 hPa | 0 mm | - | - | - |
| 1777964645 | 11.11° C | 10% | 1009.1 hPa | 0 mm | - | - | - |
| 1777964345 | 11.11° C | 10% | 1009.2 hPa | 0 mm | - | - | - |
| 1777964044 | 10.56° C | 10% | 1009.1 hPa | 0 mm | - | - | - |
| 1777963745 | 10° C | 10% | 1009.1 hPa | 0 mm | - | - | - |
| 1777963444 | 8.89° C | 10% | 1009.3 hPa | 0 mm | - | - | - |
| 1777963144 | 8.89° C | 10% | 1009.1 hPa | 0 mm | - | - | - |
| 1777962545 | 8.89° C | 10% | 1009.4 hPa | 0 mm | - | - | - |
| 1777962245 | 8.33° C | 10% | 1009.4 hPa | 0 mm | - | - | - |
| 1777961945 | 8.33° C | 10% | 1009.5 hPa | 0 mm | - | - | - |
| 1777961644 | 8.33° C | 10% | 1009.4 hPa | 0 mm | - | - | - |
| 1777961345 | 8.33° C | 10% | 1009.4 hPa | 0 mm | - | - | - |
| 1777960744 | 8.33° C | 10% | 1009.4 hPa | 0 mm | - | - | - |
| 1777960444 | 8.33° C | 10% | 1009.5 hPa | 0 mm | - | - | - |
| 1777960145 | 8.33° C | 10% | 1009.3 hPa | 0 mm | - | - | - |
* Rain latest hour (hover to see other rain measurements)
** Current wind speed in m/s (hover to see current wind gust speed)